When you browse on this site, cookies collect data to enhance your experience and personalize the content and advertising you see.
Visit our Privacy Policy to learn more. By continuing to use the site, you agree to this use of cookies and data.
  • Em Portugal
  • Lista de países
  • Para 7 dias
  • Temperatura da água
  • Mapas de satélite
  • Mapa do tempo
  • Widgets de tempo
  • user-avatar
    Iniciar Sessão

    Previsão horária em Elbasan

    Hoje, 22 Maio, Quarta-feira

    Tempo Temperatura Precipitação Vento Pressão Humidade
    00:00 +13°C° 0 mm 1 m/s 735 mmHg 82%
    01:00 +13°C° 0 mm 1 m/s 735 mmHg 82%
    02:00 +13°C° 0 mm 1 m/s 735 mmHg 81%
    03:00 +13°C° 0 mm 1 m/s 735 mmHg 80%
    04:00 +13°C° 0 mm 1 m/s 735 mmHg 79%
    05:00 +14°C° 0 mm 1 m/s 735 mmHg 74%
    06:00 +16°C° 0 mm 1 m/s 735 mmHg 70%
    07:00 +17°C° 0 mm 0 m/s 735 mmHg 66%
    08:00 +20°C° 0 mm 1 m/s 735 mmHg 62%
    09:00 +21°C° 0 mm 1 m/s 735 mmHg 59%
    10:00 +21°C° 0 mm 2 m/s 735 mmHg 55%
    11:00 +21°C° 0 mm 2 m/s 735 mmHg 55%
    12:00 +22°C° 0 mm 3 m/s 735 mmHg 55%
    13:00 +22°C° 0 mm 3 m/s 735 mmHg 55%
    14:00 +22°C° 0 mm 3 m/s 735 mmHg 57%
    15:00 +21°C° 0 mm 3 m/s 735 mmHg 60%
    16:00 +21°C° 0 mm 3 m/s 735 mmHg 62%
    17:00 +19°C° 0 mm 2 m/s 735 mmHg 70%
    18:00 +17°C° 0 mm 2 m/s 734 mmHg 77%
    19:00 +16°C° 0 mm 1 m/s 734 mmHg 84%
    20:00 +15°C° 0 mm 1 m/s 734 mmHg 85%
    21:00 +15°C° 0 mm 1 m/s 735 mmHg 86%
    22:00 +14°C° 0 mm 1 m/s 735 mmHg 87%
    23:00 +14°C° 0 mm 1 m/s 735 mmHg 86%

    Amanhã, 23 Maio, Quinta-feira

    Tempo Temperatura Precipitação Vento Pressão Humidade
    00:00 +13°C° 0 mm 1 m/s 735 mmHg 84%
    01:00 +13°C° 0 mm 1 m/s 735 mmHg 82%
    02:00 +13°C° 0 mm 1 m/s 734 mmHg 79%
    03:00 +13°C° 0 mm 1 m/s 734 mmHg 77%
    04:00 +13°C° 0 mm 1 m/s 734 mmHg 74%
    05:00 +15°C° 0 mm 1 m/s 734 mmHg 70%
    06:00 +16°C° 0 mm 1 m/s 734 mmHg 66%
    07:00 +19°C° 0 mm 1 m/s 734 mmHg 63%
    08:00 +20°C° 0 mm 1 m/s 734 mmHg 59%
    09:00 +22°C° 0 mm 1 m/s 734 mmHg 55%
    10:00 +23°C° 0 mm 2 m/s 734 mmHg 51%
    11:00 +23°C° 0 mm 2 m/s 734 mmHg 52%
    12:00 +22°C° 0 mm 3 m/s 734 mmHg 53%
    13:00 +24°C° 0 mm 3 m/s 734 mmHg 54%
    14:00 +22°C° 0.2 mm 3 m/s 733 mmHg 58%
    15:00 +22°C° 0.2 mm 3 m/s 733 mmHg 61%
    16:00 +21°C° 0.2 mm 3 m/s 732 mmHg 65%
    17:00 +19°C° 0 mm 2 m/s 732 mmHg 72%
    18:00 +17°C° 0 mm 2 m/s 732 mmHg 79%
    19:00 +16°C° 0 mm 1 m/s 732 mmHg 86%
    20:00 +15°C° 0 mm 1 m/s 733 mmHg 88%
    21:00 +13°C° 0 mm 0 m/s 733 mmHg 90%
    22:00 +13°C° 0 mm 0 m/s 733 mmHg 91%
    23:00 +13°C° 0 mm 0 m/s 733 mmHg 90%

    Depois de amanhã, 24 Maio, Sexta-feira

    Tempo Temperatura Precipitação Vento Pressão Humidade
    00:00 +13°C° 0 mm 0 m/s 733 mmHg 90%
    01:00 +13°C° 0 mm 0 m/s 732 mmHg 89%
    02:00 +12°C° 0 mm 0 m/s 732 mmHg 89%
    03:00 +12°C° 0 mm 0 m/s 732 mmHg 88%
    04:00 +13°C° 0 mm 1 m/s 732 mmHg 88%
    05:00 +14°C° 0 mm 1 m/s 732 mmHg 83%
    06:00 +15°C° 0 mm 0 m/s 732 mmHg 78%
    07:00 +16°C° 0 mm 0 m/s 732 mmHg 73%
    08:00 +19°C° 0.3 mm 1 m/s 732 mmHg 71%
    09:00 +21°C° 0.3 mm 1 m/s 732 mmHg 68%
    10:00 +21°C° 0.3 mm 2 m/s 732 mmHg 66%
    11:00 +21°C° 1.4 mm 2 m/s 732 mmHg 67%
    12:00 +21°C° 1.4 mm 3 m/s 732 mmHg 68%
    13:00 +21°C° 1.4 mm 3 m/s 732 mmHg 69%
    14:00 +21°C° 0.9 mm 3 m/s 732 mmHg 69%
    15:00 +21°C° 0.9 mm 3 m/s 732 mmHg 70%
    16:00 +20°C° 0.9 mm 3 m/s 731 mmHg 71%
    17:00 +19°C° 0.1 mm 2 m/s 732 mmHg 77%
    18:00 +18°C° 0.1 mm 2 m/s 732 mmHg 82%
    19:00 +16°C° 0.1 mm 1 m/s 732 mmHg 88%
    20:00 +16°C° 0 mm 1 m/s 732 mmHg 89%
    21:00 +15°C° 0 mm 1 m/s 733 mmHg 91%
    22:00 +13°C° 0 mm 0 m/s 733 mmHg 93%
    23:00 +13°C° 0 mm 0 m/s 733 mmHg 93%

    25 Maio, Sábado

    Tempo Temperatura Precipitação Vento Pressão Humidade
    00:00 +14°C° 0 mm 1 m/s 733 mmHg 92%
    01:00 +14°C° 0 mm 1 m/s 733 mmHg 92%
    02:00 +13°C° 0 mm 1 m/s 733 mmHg 91%
    03:00 +13°C° 0 mm 1 m/s 733 mmHg 90%
    04:00 +13°C° 0 mm 1 m/s 733 mmHg 89%
    05:00 +15°C° 0 mm 1 m/s 734 mmHg 83%
    06:00 +16°C° 0 mm 1 m/s 734 mmHg 77%
    07:00 +19°C° 0 mm 1 m/s 734 mmHg 71%
    08:00 +20°C° 0 mm 1 m/s 735 mmHg 67%
    09:00 +22°C° 0 mm 1 m/s 735 mmHg 63%
    10:00 +23°C° 0 mm 2 m/s 735 mmHg 59%
    11:00 +23°C° 0 mm 2 m/s 735 mmHg 58%
    12:00 +24°C° 0 mm 3 m/s 735 mmHg 58%
    13:00 +24°C° 0 mm 3 m/s 735 mmHg 58%
    14:00 +24°C° 0 mm 3 m/s 735 mmHg 60%
    15:00 +22°C° 0 mm 3 m/s 735 mmHg 63%
    16:00 +22°C° 0 mm 3 m/s 735 mmHg 66%
    17:00 +20°C° 0 mm 2 m/s 735 mmHg 72%
    18:00 +20°C° 0 mm 1 m/s 735 mmHg 79%
    19:00 +16°C° 0 mm 0 m/s 735 mmHg 85%
    20:00 +16°C° 0 mm 1 m/s 735 mmHg 86%
    21:00 +16°C° 0 mm 1 m/s 735 mmHg 87%
    22:00 +15°C° 0 mm 1 m/s 736 mmHg 88%
    23:00 +15°C° 0 mm 1 m/s 736 mmHg 87%

    26 Maio, Domingo

    Tempo Temperatura Precipitação Vento Pressão Humidade
    00:00 +15°C° 0 mm 1 m/s 736 mmHg 86%
    01:00 +15°C° 0 mm 1 m/s 736 mmHg 85%
    02:00 +15°C° 0 mm 1 m/s 735 mmHg 84%
    03:00 +14°C° 0 mm 1 m/s 735 mmHg 82%
    04:00 +14°C° 0 mm 1 m/s 735 mmHg 81%
    05:00 +16°C° 0 mm 1 m/s 735 mmHg 75%
    06:00 +19°C° 0 mm 1 m/s 735 mmHg 68%
    07:00 +19°C° 0 mm 0 m/s 735 mmHg 62%
    08:00 +22°C° 0 mm 1 m/s 736 mmHg 57%
    09:00 +23°C° 0 mm 1 m/s 736 mmHg 52%
    10:00 +25°C° 0 mm 1 m/s 736 mmHg 47%
    11:00 +25°C° 0 mm 2 m/s 736 mmHg 47%
    12:00 +25°C° 0 mm 2 m/s 735 mmHg 47%
    13:00 +26°C° 0 mm 3 m/s 735 mmHg 47%
    14:00 +25°C° 0 mm 3 m/s 735 mmHg 49%
    15:00 +25°C° 0 mm 2 m/s 735 mmHg 51%
    16:00 +25°C° 0 mm 2 m/s 735 mmHg 53%
    17:00 +23°C° 0 mm 2 m/s 735 mmHg 61%
    18:00 +21°C° 0 mm 1 m/s 735 mmHg 69%
    19:00 +19°C° 0 mm 1 m/s 735 mmHg 77%
    20:00 +19°C° 0 mm 1 m/s 735 mmHg 78%
    21:00 +18°C° 0 mm 1 m/s 735 mmHg 79%
    22:00 +18°C° 0 mm 1 m/s 735 mmHg 80%
    23:00 +18°C° 0 mm 1 m/s 735 mmHg 78%

    27 Maio, Segunda-feira

    Tempo Temperatura Precipitação Vento Pressão Humidade
    00:00 +16°C° 0 mm 1 m/s 735 mmHg 77%
    01:00 +16°C° 0 mm 1 m/s 735 mmHg 75%
    02:00 +16°C° 0 mm 1 m/s 735 mmHg 72%
    03:00 +16°C° 0 mm 1 m/s 735 mmHg 69%
    04:00 +16°C° 0 mm 1 m/s 735 mmHg 66%
    05:00 +19°C° 0 mm 1 m/s 735 mmHg 62%
    06:00 +21°C° 0 mm 1 m/s 735 mmHg 58%
    07:00 +22°C° 0 mm 1 m/s 735 mmHg 54%
    08:00 +24°C° 0 mm 1 m/s 735 mmHg 49%
    09:00 +26°C° 0 mm 1 m/s 735 mmHg 43%
    10:00 +28°C° 0 mm 1 m/s 735 mmHg 38%
    11:00 +29°C° 0 mm 1 m/s 735 mmHg 37%
    12:00 +29°C° 0 mm 1 m/s 735 mmHg 37%
    13:00 +30°C° 0 mm 1 m/s 735 mmHg 37%
    14:00 +30°C° 0 mm 2 m/s 734 mmHg 40%
    15:00 +29°C° 0 mm 2 m/s 734 mmHg 44%
    16:00 +28°C° 0 mm 3 m/s 734 mmHg 48%
    17:00 +26°C° 0 mm 2 m/s 734 mmHg 55%
    18:00 +24°C° 0 mm 1 m/s 734 mmHg 62%
    19:00 +20°C° 0 mm 0 m/s 734 mmHg 70%
    20:00 +22°C° 0 mm 1 m/s 734 mmHg 69%
    21:00 +22°C° 0 mm 1 m/s 734 mmHg 67%
    22:00 +21°C° 0 mm 2 m/s 735 mmHg 66%
    23:00 +21°C° 0 mm 2 m/s 734 mmHg 67%
    Mostrar mais